[[{"header":{"parameterUnit":"m.s-1","parameterCategory":1,"la1":30.2991,"la2":30.254,"lo1":-89.0895,"lo2":-89.0444,"dy":0.0017,"dx":0.0017,"nx":28,"ny":28,"refTime":"2024-03-03T03:00:00:Z","depth":0,"parameterNumber":2,"parameterNumberName":"U-component_of_WINDS"},"data":[0,0,0,0,0,0,0,0,0,0,0,0,0,0,0,0,0,0,0,0,0,0,0,0,0,0,0,0,0,0,0,0,0,0,0,0,0,0,0,0,0,0,0,0,0,0,0,0,0,0,0,0,0,0,0,0,0,0,-4.8401,-4.8401,0,-4.8453,-4.8453,-4.8454,-4.8421,-4.842,-4.8418,-4.8417,-4.8466,-4.8468,-4.8471,0,0,0,0,0,0,0,0,0,0,0,0,0,-4.8269,-4.8272,-4.8401,-4.8401,-4.8402,-4.8453,-4.8453,-4.8454,-4.8422,-4.842,-4.8418,-4.8416,-4.8465,-4.8468,-4.8471,0,0,0,0,0,0,0,0,0,0,0,0,0,-4.8324,-4.8273,-4.84,-4.8392,-4.8392,-4.8453,-4.8453,-4.8454,-4.8422,-4.842,-4.8417,-4.8415,-4.8464,-4.8468,-4.8472,-4.8542,0,0,-4.8484,-4.8486,0,0,0,0,0,0,0,0,-4.8321,-4.8329,-4.8393,-4.8393,-4.8392,-4.8428,-4.8425,-4.8484,-4.8423,-4.841,-4.8417,-4.8414,-4.8455,-4.8459,-4.8474,-4.8545,-4.8547,-4.8484,-4.8487,-4.8489,-4.849,0,0,0,0,0,0,0,-4.8317,-4.8327,-4.8421,-4.8393,-4.8393,-4.8384,-4.839,-4.8436,-4.8444,-4.8411,-4.8409,-4.8416,-4.8454,-4.847,-4.8475,-4.8547,-4.8484,-4.8488,-4.849,-4.8492,-4.8679,-4.8682,0,0,0,0,0,0,-4.8315,-4.8324,-4.8419,-4.8423,-4.8351,-4.8389,-4.8395,-4.8419,-4.8444,-4.8446,-4.8418,-4.8414,-4.8464,-4.847,-4.8476,-4.8561,-4.8489,-4.8492,-4.8495,-4.8677,-4.868,-4.8683,0,0,0,0,0,0,-4.8312,-4.8324,-4.8417,-4.8373,-4.8384,-4.8393,-4.8421,-4.8421,-4.8437,-4.8449,-4.845,-4.8433,-4.8463,-4.8471,-4.8527,-4.8562,-4.8494,-4.8498,-4.8674,-4.8678,-4.8681,-4.873,0,0,0,0,0,0,-4.8309,-4.8323,-4.835,-4.8374,-4.8387,-4.8468,-4.8423,-4.8424,-4.8445,-4.8441,-4.8463,-4.8465,-4.8462,-4.8521,-4.8531,-4.8566,-4.8501,-4.8671,-4.8676,-4.868,-4.8725,-4.8735,-4.8744,0,0,0,0,0,-4.8304,-4.8361,-4.8352,-4.8364,-4.8421,-4.847,-4.8477,-4.8473,-4.8448,-4.8475,-4.8483,-4.8464,-4.8557,-4.8527,-4.8538,-4.8575,-4.8668,-4.8674,-4.868,-4.8721,-4.8733,-4.8744,0,0,0,0,0,0,-4.8339,-4.8363,-4.8354,-4.842,-4.8444,-4.8464,-4.8498,-4.8486,-4.8516,-4.851,-4.8503,-4.8509,-4.8567,-4.8577,-4.8543,-4.8646,-4.8609,-4.8617,-4.8637,-4.8648,-4.8657,-4.8652,-4.8504,0,0,0,0,0,-4.8355,-4.8394,-4.8412,-4.8469,-4.8482,-4.8488,-4.8509,-4.8505,-4.8528,-4.8537,-4.8549,-4.8571,-4.8605,-4.8627,-4.8659,-4.8728,-4.8732,-4.8759,-4.8768,-4.8776,-4.8782,-4.8819,-4.8831,-4.8702,-4.8702,-4.8701,0,0,-4.8387,-4.8405,-4.8429,-4.8477,-4.8494,-4.8533,-4.8496,-4.8539,-4.8567,-4.8543,-4.8596,-4.8607,-4.8631,-4.8693,-4.8721,-4.8703,-4.8819,-4.8783,-4.8789,-4.8791,-4.8826,-4.8838,-4.8849,-4.8705,-4.8705,-4.8704,0,0,-4.8465,-4.8484,-4.8533,-4.8552,-4.858,-4.8585,-4.8597,-4.862,-4.8626,-4.8681,-4.8664,-4.8698,-4.8757,-4.8775,-4.8792,-4.8881,-4.8864,-4.8891,-4.8938,-4.8974,-4.8984,-4.8993,-4.9024,-4.9035,-4.8898,-4.8898,-4.8898,0,-4.8501,-4.856,-4.8559,-4.8604,-4.8625,-4.8608,-4.8657,-4.8676,-4.8712,-4.8726,-4.8706,-4.8781,-4.8796,-4.8863,-4.8885,-4.89,-4.8912,-4.8887,-4.8983,-4.8992,-4.9,-4.903,-4.9042,-4.8901,-4.8901,-4.8901,-4.89,0,-4.8603,-4.8645,-4.8681,-4.8719,-4.8745,-4.8791,-4.8797,-4.8823,-4.8817,-4.8824,-4.888,-4.8898,-4.8934,-4.895,-4.8944,-4.9017,-4.9004,-4.8984,-4.8946,-4.9016,-4.9043,-4.9055,-4.8906,-4.8905,-4.8904,-4.8903,0,0,-4.8701,-4.8741,-4.8754,-4.8771,-4.8802,-4.8834,-4.8881,-4.8918,-4.894,-4.8967,-4.9004,-4.9057,-4.9039,-4.9058,-4.9055,-4.9087,-4.9156,-4.9063,-4.9063,-4.9078,-4.9236,-4.925,-4.9263,-4.9146,-4.9149,-4.915,-4.9234,0,-4.878,-4.8863,-4.8865,-4.894,-4.8978,-4.8964,-4.9005,-4.9028,-4.9036,-4.9069,-4.9078,-4.9114,-4.9089,-4.91,-4.9132,-4.9141,-4.9187,-4.9135,-4.918,-4.9182,-4.9172,-4.9277,-4.9292,-4.9369,-4.9245,-4.9246,-4.9248,0,-4.8883,-4.8915,-4.8995,-4.9022,-4.9038,-4.9075,-4.911,-4.9143,-4.9169,-4.9172,-4.9196,-4.9188,-4.9235,-4.9199,-4.9263,-4.9227,-4.9246,-4.9254,-4.9257,-4.9259,-4.9217,-4.9281,-4.9394,-4.9405,-4.9265,-4.9263,-4.9262,0,-4.8945,-4.9009,-4.9065,-4.9081,-4.9114,-4.914,-4.9155,-4.9179,-4.9202,-4.9233,-4.9247,-4.9283,-4.9301,-4.9328,-4.933,-4.9304,-4.9395,-4.9358,-4.9398,-4.9398,-4.9415,-4.9414,-4.9531,-4.9431,-4.9431,-4.9431,-4.943,0,-4.9032,-4.9081,-4.9094,-4.9128,-4.9183,-4.9185,-4.9238,-4.9251,-4.9273,-4.9309,-4.9299,-4.9333,-4.9334,-4.9369,-4.9371,-4.9423,-4.9432,-4.9435,-4.9435,-4.9435,-4.9434,-4.9445,-4.9439,-4.9434,-4.9433,-4.9433,-4.9432,0,-4.9109,-4.912,-4.918,-4.9208,-4.9217,-4.9256,-4.9279,-4.9312,-4.9321,-4.9366,-4.9377,-4.939,-4.943,-4.9436,-4.9482,-4.9484,-4.9546,-4.9541,-4.9538,-4.9536,-4.9575,-4.9571,-4.9702,-4.9719,-4.961,-4.9611,-4.9612,0,-4.9163,-4.9201,-4.9234,-4.9259,-4.9276,-4.9315,-4.9339,-4.9343,-4.9368,-4.9403,-4.9431,-4.9471,-4.9503,-4.9567,-4.958,-4.9616,-4.961,-4.9654,-4.9615,-4.9615,-4.9609,-4.9606,-4.961,-4.9661,-4.9662,-4.9663,-4.9664,0,-4.9257,-4.9261,-4.9297,-4.9336,-4.9366,-4.9396,-4.9424,-4.9445,-4.9453,-4.9482,-4.9524,-4.9549,-4.9598,-4.9637,-4.9673,-4.9687,-4.9677,-4.9677,-4.9687,-4.9686,-4.9683,-4.9684,-4.9556,-4.9672,-4.9672,-4.9671,-4.967,-4.967,-4.9323,-4.9356,-4.9386,-4.9426,-4.9449,-4.9477,-4.9509,-4.9523,-4.9559,-4.9601,-4.9601,-4.9647,-4.9674,-4.9722,-4.9739,-4.9774,-4.976,-4.9775,-4.9779,-4.9782,-4.9786,-4.968,-4.9781,-4.9781,-4.978,-4.978,-4.978,0,-4.9415,-4.9434,-4.9472,-4.9514,-4.9546,-4.9537,-4.9568,-4.9595,-4.9637,-4.9664,-4.9696,-4.9745,-4.9784,-4.9802,-4.984,-4.9865,-4.9861,-4.9874,-4.9871,-4.9875,-4.9797,-4.9783,-4.9877,-4.9877,-4.9877,-4.9877,-4.9877,-4.9877,-4.9466,-4.9522,-4.9531,-4.9598,-4.9616,-4.9663,-4.9682,-4.9707,-4.9729,-4.9785,-4.9818,-4.983,-4.9853,-4.9893,-4.9928,-4.9932,-4.9946,-4.9962,-4.9963,-4.989,-4.988,-4.987,-4.9857,-4.9965,-4.9965,-5.0037,-5.0038,-5.0039]},{"header":{"parameterUnit":"m.s-1","parameterCategory":1,"la1":30.2991,"la2":30.254,"lo1":-89.0895,"lo2":-89.0444,"dy":0.0017,"dx":0.0017,"nx":28,"ny":28,"refTime":"2024-03-03T03:00:00:Z","depth":0,"parameterNumber":3,"parameterNumberName":"V-component_of_WINDS"},"data":[0,0,0,0,0,0,0,0,0,0,0,0,0,0,0,0,0,0,0,0,0,0,0,0,0,0,0,0,0,0,0,0,0,0,0,0,0,0,0,0,0,0,0,0,0,0,0,0,0,0,0,0,0,0,0,0,0,0,2.1485,2.1485,0,2.1541,2.1541,2.1542,2.1597,2.1598,2.1599,2.16,2.1652,2.1652,2.1653,0,0,0,0,0,0,0,0,0,0,0,0,0,2.1423,2.1424,2.1485,2.1485,2.1486,2.1541,2.1541,2.1542,2.1597,2.1598,2.1599,2.16,2.1652,2.1652,2.1653,0,0,0,0,0,0,0,0,0,0,0,0,0,2.1461,2.1424,2.1484,2.152,2.1524,2.154,2.1541,2.1542,2.1597,2.1598,2.1599,2.16,2.1651,2.1652,2.1653,2.1637,0,0,2.1656,2.1657,0,0,0,0,0,0,0,0,2.1459,2.1463,2.1514,2.1518,2.1522,2.1563,2.1539,2.1574,2.1597,2.1569,2.16,2.1601,2.1621,2.1625,2.1633,2.164,2.1642,2.1657,2.1657,2.1658,2.1658,0,0,0,0,0,0,0,2.1456,2.1461,2.1507,2.1515,2.152,2.1533,2.1539,2.1546,2.1588,2.1572,2.1576,2.1582,2.1623,2.1631,2.1634,2.1643,2.1657,2.1657,2.1658,2.1658,2.1642,2.1641,0,0,0,0,0,0,2.1449,2.1459,2.1505,2.1508,2.1493,2.1533,2.154,2.1549,2.1588,2.1595,2.1581,2.1584,2.1629,2.1633,2.1636,2.1622,2.1658,2.1659,2.1659,2.1643,2.1642,2.1641,0,0,0,0,0,0,2.1447,2.1452,2.1503,2.1485,2.1492,2.1533,2.1542,2.1549,2.1558,2.1595,2.1603,2.1582,2.163,2.1635,2.1638,2.1625,2.1659,2.166,2.1645,2.1643,2.1642,2.1593,0,0,0,0,0,0,2.1445,2.1451,2.1446,2.1484,2.1493,2.1504,2.1541,2.155,2.156,2.1565,2.1598,2.1604,2.1631,2.1636,2.1639,2.1627,2.1661,2.1646,2.1644,2.1642,2.1596,2.159,2.1584,0,0,0,0,0,2.1443,2.1428,2.1446,2.1451,2.1487,2.1503,2.1508,2.1541,2.1558,2.1554,2.1578,2.1603,2.1626,2.1636,2.1639,2.1627,2.1647,2.1644,2.1642,2.1598,2.1591,2.1585,0,0,0,0,0,0,2.1385,2.1434,2.1454,2.1451,2.1473,2.1512,2.1507,2.1531,2.1547,2.1551,2.1589,2.1596,2.1595,2.1611,2.1622,2.1616,2.164,2.1638,2.1605,2.1598,2.1593,2.1589,2.1662,0,0,0,0,0,2.1372,2.1382,2.1424,2.1417,2.1428,2.1465,2.1473,2.1497,2.152,2.1529,2.1554,2.1574,2.1586,2.1593,2.1606,2.1598,2.1607,2.1592,2.1586,2.1582,2.158,2.158,2.1574,2.1633,2.1633,2.1633,0,0,2.1345,2.1373,2.1376,2.1407,2.1426,2.1435,2.1472,2.1479,2.1486,2.1529,2.1535,2.1554,2.1579,2.1578,2.1578,2.1591,2.1566,2.1579,2.1575,2.1575,2.1577,2.1571,2.1566,2.1632,2.1632,2.1632,0,0,2.1301,2.1323,2.1322,2.1342,2.1372,2.1398,2.1397,2.1434,2.1449,2.1455,2.1489,2.1497,2.1516,2.1534,2.1545,2.1512,2.1536,2.1514,2.1485,2.1485,2.148,2.1476,2.1466,2.1462,2.1512,2.1512,2.1512,0,2.1264,2.128,2.1317,2.1324,2.1337,2.1379,2.1378,2.1395,2.1427,2.1434,2.1449,2.1477,2.1496,2.1501,2.1493,2.15,2.1501,2.1511,2.1478,2.1474,2.1471,2.1462,2.1458,2.151,2.151,2.151,2.151,0,2.1233,2.1244,2.1239,2.1272,2.1284,2.1286,2.1324,2.1332,2.1355,2.1379,2.1386,2.1412,2.1433,2.1435,2.1456,2.1443,2.1451,2.1471,2.1496,2.1462,2.1454,2.1451,2.1506,2.1507,2.1508,2.1508,0,0,2.1153,2.1209,2.1207,2.1224,2.1262,2.127,2.1275,2.1297,2.1304,2.1325,2.133,2.1347,2.1368,2.138,2.1404,2.1404,2.1378,2.1425,2.1426,2.1416,2.1367,2.1353,2.1348,2.1394,2.1394,2.1393,2.1366,0,2.1116,2.113,2.1165,2.1167,2.1179,2.122,2.1225,2.1248,2.1271,2.1284,2.1308,2.1321,2.1345,2.1354,2.1355,2.1381,2.1369,2.1383,2.14,2.14,2.1394,2.1343,2.1327,2.13,2.1363,2.1362,2.1362,0,2.1075,2.1097,2.1101,2.1142,2.1148,2.1151,2.1176,2.1187,2.1215,2.1232,2.1248,2.1276,2.1284,2.1307,2.1319,2.1328,2.1337,2.1351,2.135,2.1354,2.1379,2.1347,2.1292,2.1288,2.1357,2.1357,2.1357,0,2.1019,2.1049,2.1057,2.1069,2.1116,2.1118,2.1137,2.1166,2.1178,2.1199,2.1208,2.1228,2.1239,2.1255,2.1287,2.1301,2.1296,2.1321,2.131,2.131,2.1308,2.1308,2.1255,2.1311,2.1311,2.1311,2.1311,0,2.0976,2.0977,2.1032,2.1037,2.104,2.1081,2.1082,2.1105,2.1131,2.1141,2.1177,2.1185,2.1227,2.124,2.1265,2.1272,2.1276,2.129,2.1297,2.1288,2.1286,2.1295,2.1298,2.131,2.1311,2.1311,2.1311,0,2.0913,2.095,2.0961,2.1006,2.1017,2.1018,2.1055,2.1061,2.1087,2.1099,2.1104,2.1145,2.1162,2.1197,2.1222,2.1239,2.1241,2.1252,2.1232,2.1237,2.1225,2.1226,2.1176,2.1173,2.123,2.1229,2.1229,0,2.0884,2.0886,2.0932,2.0943,2.0961,2.0976,2.099,2.103,2.1043,2.1077,2.1078,2.1099,2.1118,2.1143,2.1174,2.1195,2.1208,2.1189,2.1211,2.1203,2.121,2.121,2.1211,2.1184,2.1184,2.1183,2.1182,0,2.0828,2.0847,2.0866,2.0893,2.0908,2.093,2.0954,2.096,2.1005,2.1017,2.1037,2.1052,2.108,2.1101,2.1126,2.1145,2.1171,2.1176,2.1174,2.1165,2.1155,2.1162,2.122,2.1176,2.1177,2.1177,2.1178,2.1178,2.0783,2.0788,2.0822,2.0843,2.0866,2.0888,2.0897,2.0925,2.0943,2.0971,2.0993,2.1011,2.1041,2.1079,2.1096,2.1111,2.1123,2.1121,2.1121,2.112,2.1117,2.1152,2.1115,2.1115,2.1115,2.1116,2.1116,0,2.0731,2.0756,2.0774,2.0808,2.0825,2.085,2.0878,2.089,2.0907,2.0933,2.0952,2.0975,2.0996,2.103,2.1053,2.1058,2.1071,2.1063,2.1064,2.1068,2.1103,2.1103,2.1053,2.1053,2.1053,2.1053,2.1053,2.1053,2.0706,2.0717,2.0741,2.0764,2.0789,2.0809,2.0823,2.0844,2.0865,2.0891,2.0909,2.0932,2.0962,2.0988,2.1008,2.1018,2.1025,2.1014,2.1027,2.1059,2.1065,2.1071,2.1071,2.1015,2.1014,2.0991,2.0991,2.099]}]]